Powrót do katalogu

STARLINK-4272

AktywnyŁącznośćVLEO
NORAD 52866·PAYLOAD·🇺🇸 United States

Wystrzelony Jun 17, 2022 z Cape Canaveral Space Force Station

Loading…

Następne Przeloty (najbliższe 24 godziny)

TLE

ŚwieżeSource: CelesTrak SupGP

Epoka: Sep 14, 2026, 20:54 UTC

1 52866C 22062AN  26257.87131944  .00043621  00000+0  13241-2 0  2573
2 52866  53.1577 244.2981 0001310  91.4689 112.0963 15.33516605    17

Śledź STARLINK-4272 w czasie rzeczywistym z AllMySat

Download on the App Store